Weather in Krosno

Poland     49°41′40″N   21°45′10″E
temp.,
°C
wind,
m/s
gust,
m/s
humid.,
%
clouds,
%
prec.,
mm/h
press.,
hPa
HPBL,
m
14 may, fri
fri1423:00+11s511925 0.0 1001346
02:00+10ssw5129213 0.0 1001352
05:00+11ssw6118899 0.0 1001471
08:00+13ssw7108392 0.0 1001586
11:00+13ssw6881100 0.1 1003743
14:00+11sw5790100 0.5 1004497
17:00+11sw5891100 0.6 1006428
20:00+10sw4992100 1.1 1006417
15 may, sat
sat1523:00+10wsw499698 0.4 1008492
02:00+10wsw4995100 0.8 1009549
05:00+7wsw229383 0.0 101013
08:00+12wsw238391 0.0 1011436
11:00+15ssw447380 0.4 10111061
14:00+16ssw446755 0.9 10101215
17:00+16ssw557073 0.2 10091060
20:00+12sse3585100 0.2 100977
16 may, sun
sun1623:00+9sse359388 0.0 100979
02:00+9se3595100 0.0 100984
05:00+9sse3695100 0.0 1007113
08:00+14s51182100 0.0 1007540
11:00+14ssw61080100 0.1 1007676
14:00+12s51088100 1.4 1006426
17:00+15sw6983100 0.4 10061073
20:00+9w4996100 4.3 1008427
17 may, mon
mon1723:00+8sw239679 0.9 100998
02:00+6s22930 0.9 101013
05:00+5s22923 0.0 101019
08:00+11ssw248126 0.0 1010258
11:00+16ssw336527 0.1 10091004
14:00+18s665894 0.3 10081660
17:00+13wsw5891100 1.9 1009374
20:00+11se2394100 4.3 101069
18 may, tue
tue1823:00+10s239373 0.1 101046
02:00+8sw1195100 0.1 101111
05:00+9nw1194100 0.1 100911
08:00+9nw2699100 5.6 1010357
11:00+9wnw4996100 2.7 1010632
14:00+8wnw51096100 5.3 1010544
17:00+8wnw3797100 0.8 1010374
20:00+9wnw3897100 0.9 1009405